Regional Weather Roundup
Issued by NWS

Home | Current Version | Previous Version | Graphics & Text | Print | Product List | Glossary On
Versions: 1 2 3 4 5 6 7 8 9 10 11 12 13 14 15 16 17 18 19 20 21 22 23 24 25 26 27 28 29 30 31 32 33 34 35 36 37 38 39 40 41 42 43 44 45 46 47 48 49 50
000
ASUS43 KDMX 201201
RWRIA

WEATHER ROUNDUP FOR IOWA
NATIONAL WEATHER SERVICE DES MOINES IA
600 AM CST FRI JAN 20 2017

NOTE: "FAIR" INDICATES FEW OR NO CLOUDS BELOW 12,000 FEET WITH NO
SIGNIFICANT WEATHER AND/OR OBSTRUCTIONS TO VISIBILITY.

* - THESE STATIONS ARE NOT NWS STATIONS...THUS NOT UNDER NWS
QUALITY CONTROL.  THEY ALSO DO NOT REPORT WEATHER SUCH
AS PRECIPITATION OR FOG.

IAZ001>003-012>014-020>022-031>034-043>046-201300-
   NORTHWEST IOWA

CITY           SKY/WX    TMP DP  RH WIND       PRES   REMARKS
CARROLL *      FOG       36  36 100 SE3       29.58S VSB 1/4
CHEROKEE *     CLOUDY    37  37 100 CALM      29.56F FOG
DENISON *      CLOUDY    37  37 100 E6        29.54F FOG     WCI  33
LE MARS *      CLOUDY    37  37 100 SE10      29.55S FOG     WCI  30
ORANGE CITY *  CLOUDY    37  37 100 SE3       29.54F FOG
SHELDON *      CLOUDY    36  36 100 SE8       29.53F FOG     WCI  29
SIOUX CITY     CLOUDY    38  38 100 SE8       29.54S FOG     WCI  32
6HR MIN TEMP:  37; 6HR MAX TEMP:  39;

SPENCER        CLOUDY    35  34  96 E6        29.57F WCI  30
6HR MIN TEMP:  34; 6HR MAX TEMP:  35;

STORM LAKE *   FOG       34  34 100 E6        29.56F VSB 1/4 WCI  29
$$

IAZ055>058-069>071-079>083-090>094-201300-
   SOUTHWEST IOWA

CITY           SKY/WX    TMP DP  RH WIND       PRES   REMARKS
ATLANTIC *     FOG       36  36 100 CALM      29.57F VSB 1/2
AUDUBON *      FOG       37  36  93 CALM      29.59R VSB 3/4
CLARINDA *     FOG       37  37 100 N5        29.59S VSB 3/4 WCI  34
COUNCIL BLFS * CLOUDY    39  39 100 E6        29.55F WCI  35
CRESTON *      FOG       37  37 100 NE6       29.57F VSB 1/4 WCI  33
HARLAN  *      FOG       36  36 100 CALM      29.60F VSB 1/2
LAMONI         FOG       37  37 100 N3        29.57F VSB 1/4
6HR MIN TEMP:  36; 6HR MAX TEMP:  39;

RED OAK *      CLOUDY    37  37 100 CALM      29.56F
SHENANDOAH *   CLOUDY    37  37 100 CALM      29.58R FOG
$$

IAZ047>049-059>061-072>074-084-201300-
   CENTRAL IOWA

CITY           SKY/WX    TMP DP  RH WIND       PRES   REMARKS
AMES           FOG       35  35 100 CALM      29.60F VSB 3/4
6HR MIN TEMP:  34; 6HR MAX TEMP:  35;

ANKENY *       FOG       36  36 100 CALM      29.62R VSB 1
BOONE *        FOG       34  34 100 CALM      29.58F VSB 1/2
CHARITON *     FOG       36  36 100 N5        29.59S VSB<1/4 WCI  32
DES MOINES     FOG       37  37 100 NE5       29.60S VSB 1/4 WCI  33
6HR MIN TEMP:  36; 6HR MAX TEMP:  37; 6HR PCP: TRACE;

GRINNELL*      FOG       34  34  99 E3        29.60S VSB 1/4
KNOXVILLE *    FOG       36  36 100 CALM      29.59R VSB 1/4
MARSHALLTOWN   FOG       35  34  96 E5        29.60S VSB 1/2 WCI  31
6HR MIN TEMP:  34; 6HR MAX TEMP:  35;

NEWTON *       FOG       36  36 100 CALM      29.60R VSB 1/4
PELLA *        FOG       36  35  98 CALM      29.62R VSB 1/2
PERRY *        FOG       36  35  98 CALM      29.59S VSB 3/4
$$

IAZ004>006-015-016-023>025-035-036-201300-
   NORTH CENTRAL IOWA

CITY           SKY/WX    TMP DP  RH WIND       PRES   REMARKS
ALGONA *       FOG       34  34 100 SE3       29.59F VSB 1/4
CLARION *      CLOUDY    34  34 100 E5        29.60F FOG     WCI  30
ESTHERVILLE    FOG       33  33 100 S7        29.58F VSB 1   WCI  27
6HR MIN TEMP:  32; 6HR MAX TEMP:  33;

FORT DODGE *   CLOUDY    34  30  86 E6        29.60F WCI  29
MASON CITY     FOG       33  33 100 SE3       29.61F VSB 1/2
6HR MIN TEMP:  33; 6HR MAX TEMP:  34;

FOREST CITY *  CLOUDY    32  32 100 SE3       29.60F FOG
WEBSTER CITY * FOG       34  34 100 CALM      29.58F VSB 1/4
IOWA FALLS *   FOG       34  33  98 CALM      29.61S VSB 1/4
$$

IAZ007>011-017>019-026>030-037>042-050>054-066-201300-
   NORTHEAST IOWA

CITY           SKY/WX    TMP DP  RH WIND       PRES   REMARKS
CEDAR RAPIDS   FOG       35  35 100 E7        29.60  VSB 1/2 WCI  29
6HR MIN TEMP:  34; 6HR MAX TEMP:  35;

CHARLES CITY * FOG       34  34 100 E5        29.62S VSB 3/4 WCI  30
CLINTON *      FOG       35  35 100 NE8       29.63F VSB 3/4 WCI  29
DECORAH *      MIX PCPN  34  34 100 E7        29.62S WCI  28
DUBUQUE        FOG       34  34 100 NE6       29.62F VSB 1/2 WCI  29
6HR MIN TEMP:  34; 6HR MAX TEMP:  36;

MONTICELLO *   CLOUDY    36  36 100 NE5       29.62S FOG     WCI  32
OELWEIN *      CLOUDY    34  34 100 E6        29.62S FOG     WCI  29
WATERLOO       FOG       34  33  96 CALM      29.62S VSB 1/2
6HR MIN TEMP:  33; 6HR MAX TEMP:  35;

$$

IAZ064-065-067-068-078-201300-
   EAST CENTRAL IOWA

CITY           SKY/WX    TMP DP  RH WIND       PRES   REMARKS
DAVENPORT      FOG       35  35 100 NE6       29.62F VSB 1   WCI  30
6HR MIN TEMP:  35; 6HR MAX TEMP:  36;

IOWA CITY      CLOUDY    37  36  96 NE3       29.62F FOG
6HR MIN TEMP:  37; 6HR MAX TEMP:  38;

MUSCATINE *    CLOUDY    36  36 100 CALM      29.62S FOG
QUAD CITIES    FOG       37  36  96 NE3       29.61S VSB 3/4
6HR MIN TEMP:  37; 6HR MAX TEMP:  38;

$$

IAZ062-063-075>077-085>089-095>099-201300-
   SOUTHEAST IOWA

CITY           SKY/WX    TMP DP  RH WIND       PRES   REMARKS
BURLINGTON     FOG       38  38 100 E3        29.59S VSB 1/2
6HR MIN TEMP:  37; 6HR MAX TEMP:  39;

FAIRFIELD *    FOG       36  36 100 N5        29.59S VSB 1/2 WCI  32
FORT MADISON * FOG       37  37 100 CALM      29.61R VSB 1/2
KEOKUK *       FOG       39 N/A N/A CALM      29.59S VSB 1/2
OSKALOOSA *    FOG       35  34  99 CALM      29.60S VSB 1/4
OTTUMWA        FOG       37  37 100 NE5       29.58F VSB 1/2 WCI  33
6HR MIN TEMP:  37; 6HR MAX TEMP:  38;

WASHINGTON *   FOG       36  36 100 NE6       29.61S VSB 1/4 WCI  31
$$

ABBREVIATIONS USED IN REMARKS
   TC - TEMPERATURES IN CELSIUS
  WCI - WIND CHILL INDEX
   HX - HEAT INDEX
  VSB - VISIBILITY
$$





USA.gov is the U.S. government's official web portal to all federal, state and local government web resources and services.